Everett, WA

11:29 PM PST on November 19, 2019 (GMT -0800)
Snohomish County

Weather History for KPAE - August, 2019

Change the Weather History Date:

Monday, August 12, 2019

  Actual Average Record
Temperature  
Mean Temperature 67 °F -  
Max Temperature 75 °F 75 °F 88 °F (1981)
Min Temperature 59 °F 54 °F 47 °F (1975)
Cooling Degree Days 2    
Growing Degree Days 17 (Base 50)    
Moisture  
Dew Point 58 °F    
Average Humidity 83    
Maximum Humidity 100    
Minimum Humidity 41    
Precipitation  
Precipitation 0.01 in - - ()
Sea Level Pressure  
Sea Level Pressure 30.15 in    
Wind  
Wind Speed 3 mph (South)    
Max Wind Speed 8 mph    
Max Gust Speed -    
Visibility 8 miles    
Events Fog , Rain    
Averages and records for this station are not official NWS values.
T = Trace of Precipitation, MM = Missing Value Source: NWS Daily Summary

Daily Weather History Graph

Daily Weather History Graph

Search for Another Location

Airport or City:

Astronomy

Aug. 12, 2019 Rise Set
Actual Time 5:59 AM PDT 8:27 PM PDT
Civil Twilight 5:25 AM PDT 9:01 PM PDT
Nautical Twilight 4:41 AM PDT 9:45 PM PDT
Astronomical Twilight 3:51 AM PDT 10:34 PM PDT
Moon 7:12 PM PDT (8/12) 3:02 AM PDT (8/12)
Length of Visible Light 15h 36m
Length of Day
14h 27m
Waxing Gibbous, 93% of the Moon is Illuminated
Aug 12
Waxing Gibbous
Aug 15
Full
Aug 23
Last Quarter
Aug 30
New
Sep 5
First Quarter

Hourly Weather History & Observations

Time (PDT) Temp. Dew Point Humidity Pressure Visibility Wind Dir Wind Speed Gust Speed Precip Events Conditions
12:28 AM 62.1 °F 60.1 °F 93% 30.14 in 10.0 mi Calm Calm - N/A   Overcast
12:43 AM 61.0 °F 60.1 °F 97% 30.15 in 3.0 mi Calm Calm - 0.00 in Rain Light Rain
12:53 AM 61.0 °F 60.1 °F 97% 30.14 in 5.0 mi Variable 4.6 mph - 0.00 in Rain Light Rain
1:16 AM 61.0 °F 60.1 °F 97% 30.15 in 1.8 mi North 3.5 mph - 0.01 in Rain Light Rain
1:26 AM 60.1 °F 60.1 °F 100% 30.15 in 0.5 mi Calm Calm - 0.01 in Fog , Rain Light Rain
1:40 AM 60.1 °F 60.1 °F 100% 30.15 in 2.5 mi Calm Calm - 0.01 in   Overcast
1:51 AM 60.8 °F 59.0 °F 94% 30.15 in 1.0 mi East 4.6 mph - 0.01 in   Mist
1:53 AM 60.1 °F 59.0 °F 96% 30.14 in 1.0 mi East 4.6 mph - 0.01 in   Overcast
1:57 AM 60.1 °F 59.0 °F 96% 30.15 in 3.0 mi East 5.8 mph - N/A   Overcast
2:08 AM 60.1 °F 59.0 °F 96% 30.15 in 10.0 mi ESE 4.6 mph - N/A   Overcast
2:15 AM 61.0 °F 60.1 °F 97% 30.15 in 10.0 mi Calm Calm - N/A   Overcast
2:53 AM 60.1 °F 59.0 °F 96% 30.14 in 8.0 mi North 3.5 mph - N/A   Overcast
3:02 AM 60.1 °F 59.0 °F 96% 30.15 in 1.8 mi NNE 3.5 mph - N/A   Overcast
3:07 AM 60.1 °F 59.0 °F 96% 30.15 in 0.5 mi NNE 3.5 mph - N/A Fog Fog
3:21 AM 60.1 °F 60.1 °F 100% 30.15 in 1.2 mi Calm Calm - N/A   Overcast
3:32 AM 60.1 °F 59.0 °F 96% 30.15 in 1.0 mi Calm Calm - N/A   Mostly Cloudy
3:43 AM 59.0 °F 57.9 °F 96% 30.15 in 4.0 mi South 3.5 mph - N/A   Mostly Cloudy
3:51 AM 60.8 °F 59.0 °F 94% 30.15 in 10.0 mi SSE 3.5 mph - N/A   Mostly Cloudy
3:53 AM 60.1 °F 59.0 °F 96% 30.14 in 10.0 mi Calm Calm - N/A   Mostly Cloudy
4:00 AM 61.0 °F 59.0 °F 93% 30.15 in 10.0 mi SSE 5.8 mph - N/A   Overcast
4:49 AM 60.8 °F 59.0 °F 94% 30.15 in 9.0 mi South 6.9 mph - N/A   Overcast
4:53 AM 60.1 °F 59.0 °F 96% 30.15 in 9.0 mi South 5.8 mph - N/A   Overcast
5:53 AM 60.1 °F 59.0 °F 96% 30.15 in 10.0 mi SSE 3.5 mph - N/A   Mostly Cloudy
6:22 AM 60.1 °F 59.0 °F 96% 30.16 in 8.0 mi Calm Calm - N/A   Overcast
6:46 AM 61.0 °F 59.0 °F 93% 30.16 in 10.0 mi SSE 3.5 mph - N/A   Overcast
6:53 AM 61.0 °F 59.0 °F 93% 30.16 in 10.0 mi SSE 5.8 mph - N/A   Overcast
7:16 AM 61.0 °F 59.0 °F 93% 30.17 in 10.0 mi SE 3.5 mph - N/A   Overcast
7:53 AM 61.0 °F 59.0 °F 93% 30.17 in 10.0 mi Calm Calm - N/A   Mostly Cloudy
8:53 AM 63.0 °F 59.0 °F 87% 30.17 in 10.0 mi SE 4.6 mph - N/A   Overcast
9:00 AM 63.0 °F 59.0 °F 87% 30.18 in 10.0 mi South 5.8 mph - N/A   Overcast
9:10 AM 64.0 °F 57.9 °F 80% 30.17 in 10.0 mi South 8.1 mph - N/A   Overcast
9:53 AM 64.0 °F 57.9 °F 80% 30.17 in 10.0 mi SSW 4.6 mph - N/A   Overcast
10:00 AM 64.9 °F 59.0 °F 81% 30.17 in 10.0 mi SSW 4.6 mph - N/A   Overcast
10:53 AM 66.9 °F 59.0 °F 76% 30.17 in 8.0 mi WSW 4.6 mph - N/A   Overcast
11:00 AM 66.9 °F 59.0 °F 76% 30.17 in 9.0 mi SW 4.6 mph - N/A   Scattered Clouds
11:21 AM 66.9 °F 59.0 °F 76% 30.17 in 9.0 mi West 5.8 mph - N/A   Mostly Cloudy
11:35 AM 66.0 °F 59.0 °F 78% 30.17 in 10.0 mi WNW 5.8 mph - N/A   Scattered Clouds
11:53 AM 66.0 °F 59.0 °F 78% 30.17 in 10.0 mi West 5.8 mph - N/A   Mostly Cloudy
12:53 PM 69.1 °F 57.9 °F 68% 30.16 in 10.0 mi West 4.6 mph - N/A   Overcast
1:53 PM 72.0 °F 55.0 °F 55% 30.15 in 10.0 mi Calm Calm - N/A   Mostly Cloudy
2:53 PM 73.0 °F 54.0 °F 51% 30.14 in 10.0 mi West 6.9 mph - N/A   Mostly Cloudy
3:53 PM 75.0 °F 51.1 °F 43% 30.12 in 10.0 mi West 5.8 mph - N/A   Scattered Clouds
4:53 PM 75.0 °F 52.0 °F 44% 30.11 in 10.0 mi Variable 4.6 mph - N/A   Clear
5:53 PM 75.9 °F 51.1 °F 42% 30.09 in 10.0 mi North 4.6 mph - N/A   Clear
6:53 PM 73.9 °F 48.9 °F 41% 30.09 in 10.0 mi NNW 4.6 mph - N/A   Clear
7:53 PM 72.0 °F 51.1 °F 48% 30.09 in 10.0 mi Calm Calm - N/A   Clear
8:53 PM 68.0 °F 52.0 °F 56% 30.10 in 10.0 mi Calm Calm - N/A   Clear
9:53 PM 64.9 °F 54.0 °F 68% 30.10 in 10.0 mi North 5.8 mph - N/A   Clear
10:53 PM 63.0 °F 54.0 °F 72% 30.11 in 10.0 mi North 4.6 mph - N/A   Clear
11:53 PM 62.1 °F 55.9 °F 80% 30.12 in 10.0 mi North 6.9 mph - N/A   Clear